| time (UTC) | temp F | wind direction | speed MPH | gust MPH | rain 1hr in | rain 24hr in | rain mn in | humidity % | barometer mb |
| 20260510142240 | 65 | 17 | 9.0 | 14.0 | 0.00 | 0.00 | 0.00 | 51 | 1011.0 |
| 20260510141238 | 65 | 65 | 6.0 | 18.0 | 0.00 | 0.00 | 0.00 | 51 | 1011.2 |
| 20260510140259 | 65 | 355 | 3.0 | 17.0 | 0.00 | 0.00 | 0.00 | 53 | 1011.4 |
| 20260510135249 | 65 | 79 | 8.0 | 16.0 | 0.00 | 0.00 | 0.00 | 52 | 1011.4 |
| 20260510134232 | 65 | 36 | 8.0 | 14.0 | 0.00 | 0.00 | 0.00 | 53 | 1011.4 |
| 20260510133241 | 65 | 27 | 5.0 | 12.0 | 0.00 | 0.00 | 0.00 | 53 | 1011.4 |
| 20260510132232 | 64 | 41 | 7.0 | 12.0 | 0.00 | 0.00 | 0.00 | 52 | 1011.4 |
| 20260510131248 | 64 | 40 | 7.0 | 17.0 | 0.00 | 0.00 | 0.00 | 54 | 1011.5 |
| 20260510130240 | 65 | 59 | 7.0 | 15.0 | 0.00 | 0.00 | 0.00 | 52 | 1011.6 |
| 20260510125232 | 65 | 26 | 6.0 | 16.0 | 0.00 | 0.00 | 0.00 | 50 | 1011.6 |
| 20260510124245 | 65 | 49 | 5.0 | 15.0 | 0.00 | 0.00 | 0.00 | 52 | 1011.6 |
| 20260510123246 | 64 | 71 | 6.0 | 16.0 | 0.00 | 0.00 | 0.00 | 50 | 1011.7 |
| 20260510122240 | 64 | 57 | 3.0 | 13.0 | 0.00 | 0.00 | 0.00 | 50 | 1011.7 |
| 20260510121300 | 64 | 55 | 9.0 | 16.0 | 0.00 | 0.00 | 0.00 | 50 | 1011.8 |
| 20260510120241 | 64 | 65 | 4.0 | 12.0 | 0.00 | 0.00 | 0.00 | 51 | 1012.0 |
| 20260510115233 | 64 | 40 | 7.0 | 15.0 | 0.00 | 0.00 | 0.00 | 51 | 1012.0 |
| 20260510114232 | 64 | 51 | 9.0 | 19.0 | 0.00 | 0.00 | 0.00 | 50 | 1012.0 |
| 20260510113246 | 64 | 32 | 7.0 | 15.0 | 0.00 | 0.00 | 0.00 | 52 | 1012.2 |
| 20260510112257 | 63 | 65 | 6.0 | 13.0 | 0.00 | 0.00 | 0.00 | 53 | 1012.2 |
| 20260510111248 | 63 | 59 | 9.0 | 15.0 | 0.00 | 0.00 | 0.00 | 55 | 1012.5 |
| 20260510110240 | 63 | 88 | 7.0 | 15.0 | 0.00 | 0.00 | 0.00 | 53 | 1012.5 |
| 20260510105233 | 63 | 28 | 8.0 | 15.0 | 0.00 | 0.00 | 0.00 | 56 | 1012.5 |
| 20260510104248 | 62 | 17 | 7.0 | 19.0 | 0.00 | 0.00 | 0.00 | 56 | 1012.6 |
| 20260510103242 | 61 | 46 | 8.0 | 15.0 | 0.00 | 0.00 | 0.00 | 56 | 1012.5 |
| 20260510102243 | 62 | 68 | 10.0 | 17.0 | 0.00 | 0.00 | 0.00 | 55 | 1012.5 |
| 20260510101232 | 61 | 30 | 9.0 | 16.0 | 0.00 | 0.00 | 0.00 | 57 | 1012.6 |
| 20260510100244 | 61 | 45 | 11.0 | 16.0 | 0.00 | 0.00 | 0.00 | 58 | 1012.5 |
| 20260510095257 | 60 | 36 | 7.0 | 21.0 | 0.00 | 0.00 | 0.00 | 60 | 1012.5 |
| 20260510094232 | 59 | 32 | 10.0 | 17.0 | 0.00 | 0.00 | 0.00 | 60 | 1012.6 |
| 20260510093302 | 59 | 28 | 9.0 | 14.0 | 0.00 | 0.00 | 0.00 | 62 | 1012.7 |
| 20260510092235 | 58 | 53 | 8.0 | 15.0 | 0.00 | 0.00 | 0.00 | 62 | 1012.6 |
| 20260510091242 | 58 | 350 | 9.0 | 14.0 | 0.00 | 0.00 | 0.00 | 63 | 1012.6 |
| 20260510090234 | 57 | 19 | 7.0 | 18.0 | 0.00 | 0.00 | 0.00 | 64 | 1012.6 |
| 20260510085308 | 57 | 5 | 8.0 | 17.0 | 0.00 | 0.00 | 0.00 | 65 | 1012.6 |
| 20260510084304 | 56 | 5 | 6.0 | 19.0 | 0.00 | 0.00 | 0.00 | 66 | 1012.7 |
| 20260510083243 | 56 | 32 | 10.0 | 17.0 | 0.00 | 0.00 | 0.00 | 67 | 1012.5 |
| 20260510082235 | 55 | 57 | 4.0 | 16.0 | 0.00 | 0.00 | 0.00 | 68 | 1012.5 |
| 20260510081253 | 54 | 34 | 8.0 | 17.0 | 0.00 | 0.00 | 0.00 | 69 | 1012.4 |
| 20260510080307 | 54 | 63 | 5.0 | 17.0 | 0.00 | 0.00 | 0.00 | 70 | 1012.3 |
| 20260510075233 | 54 | 106 | 5.0 | 17.0 | 0.00 | 0.00 | 0.00 | 71 | 1012.3 |
| 20260510074235 | 53 | 37 | 12.0 | 20.0 | 0.00 | 0.00 | 0.00 | 72 | 1012.2 |
| 20260510073304 | 52 | 21 | 14.0 | 21.0 | 0.00 | 0.00 | 0.00 | 74 | 1012.1 |
| 20260510072243 | 52 | 82 | 11.0 | 17.0 | 0.00 | 0.00 | 0.00 | 75 | 1012.1 |
| 20260510071238 | 51 | 54 | 9.0 | 22.0 | 0.00 | 0.00 | 0.00 | 76 | 1012.0 |
| 20260510070257 | 50 | 53 | 11.0 | 19.0 | 0.00 | 0.00 | 0.00 | 76 | 1011.9 |
| 20260510065253 | 50 | 49 | 11.0 | 21.0 | 0.00 | 0.00 | 0.00 | 76 | 1011.9 |
| 20260510064247 | 50 | 53 | 13.0 | 22.0 | 0.00 | 0.00 | 0.00 | 76 | 1011.7 |
| 20260510063257 | 50 | 360 | 8.0 | 19.0 | 0.00 | 0.00 | 0.00 | 75 | 1011.6 |
| 20260510062246 | 50 | 42 | 14.0 | 21.0 | 0.00 | 0.00 | 0.00 | 75 | 1011.6 |
| 20260510061245 | 50 | 56 | 10.0 | 18.0 | 0.00 | 0.00 | 0.00 | 74 | 1011.6 |
| 20260510060241 | 50 | 19 | 8.0 | 14.0 | 0.00 | 0.00 | 0.00 | 74 | 1011.5 |
| 20260510055244 | 50 | 63 | 9.0 | 18.0 | 0.00 | 0.00 | 0.00 | 73 | 1011.5 |
| 20260510054239 | 50 | 45 | 9.0 | 19.0 | 0.00 | 0.00 | 0.00 | 73 | 1011.4 |
| 20260510053249 | 50 | 38 | 10.0 | 16.0 | 0.00 | 0.00 | 0.00 | 73 | 1011.4 |
| 20260510052244 | 50 | 51 | 12.0 | 17.0 | 0.00 | 0.00 | 0.00 | 73 | 1011.4 |
| 20260510051233 | 50 | 40 | 12.0 | 16.0 | 0.00 | 0.00 | 0.00 | 72 | 1011.4 |
| 20260510050249 | 51 | 24 | 7.0 | 19.0 | 0.00 | 0.00 | 0.00 | 72 | 1011.4 |
| 20260510045243 | 51 | 30 | 10.0 | 20.0 | 0.00 | 0.00 | 0.00 | 71 | 1011.4 |
| 20260510044236 | 51 | 62 | 9.0 | 21.0 | 0.00 | 0.00 | 0.00 | 70 | 1011.2 |
| 20260510043252 | 52 | 59 | 10.0 | 16.0 | 0.00 | 0.00 | 0.00 | 70 | 1011.3 |
| 20260510042244 | 52 | 37 | 10.0 | 19.0 | 0.00 | 0.00 | 0.00 | 69 | 1011.3 |
| 20260510041258 | 52 | 35 | 6.0 | 15.0 | 0.00 | 0.00 | 0.00 | 70 | 1011.2 |
| 20260510040247 | 53 | 27 | 7.0 | 19.0 | 0.00 | 0.00 | 0.00 | 70 | 1011.3 |
| 20260510035244 | 53 | 30 | 12.0 | 18.0 | 0.00 | 0.00 | 0.00 | 70 | 1011.3 |
| 20260510034257 | 53 | 40 | 10.0 | 16.0 | 0.00 | 0.00 | 0.00 | 70 | 1011.5 |
| 20260510033257 | 54 | 44 | 5.0 | 13.0 | 0.00 | 0.00 | 0.00 | 71 | 1011.6 |
| 20260510032307 | 54 | 51 | 8.0 | 19.0 | 0.00 | 0.00 | 0.00 | 71 | 1011.7 |
| 20260510031257 | 55 | 47 | 6.0 | 19.0 | 0.00 | 0.00 | 0.00 | 71 | 1011.7 |
| 20260510030248 | 55 | 38 | 11.0 | 16.0 | 0.00 | 0.00 | 0.00 | 71 | 1011.7 |
| 20260510025247 | 55 | 36 | 4.0 | 13.0 | 0.00 | 0.00 | 0.00 | 71 | 1011.7 |
| 20260510024243 | 55 | 59 | 9.0 | 15.0 | 0.00 | 0.00 | 0.00 | 71 | 1011.8 |
| 20260510023258 | 55 | 81 | 5.0 | 14.0 | 0.00 | 0.00 | 0.00 | 71 | 1011.8 |
| 20260510022246 | 55 | 53 | 8.0 | 12.0 | 0.00 | 0.00 | 0.00 | 72 | 1011.8 |
| 20260510021319 | 56 | 53 | 8.0 | 17.0 | 0.00 | 0.00 | 0.00 | 72 | 1012.0 |
| 20260510020247 | 56 | 49 | 3.0 | 13.0 | 0.00 | 0.00 | 0.00 | 73 | 1012.1 |
| 20260510015253 | 56 | 60 | 4.0 | 12.0 | 0.00 | 0.00 | 0.00 | 73 | 1012.1 |
| 20260510014307 | 56 | 46 | 7.0 | 11.0 | 0.00 | 0.00 | 0.00 | 74 | 1012.2 |
| 20260510013247 | 56 | 77 | 2.0 | 14.0 | 0.00 | 0.00 | 0.00 | 74 | 1012.3 |
| 20260510012306 | 56 | 46 | 5.0 | 14.0 | 0.00 | 0.00 | 0.00 | 74 | 1012.3 |
| 20260510011253 | 57 | 86 | 7.0 | 13.0 | 0.00 | 0.00 | 0.00 | 74 | 1012.5 |
| 20260510010247 | 57 | 46 | 6.0 | 12.0 | 0.00 | 0.00 | 0.00 | 73 | 1012.3 |
| 20260510005321 | 57 | 44 | 5.0 | 10.0 | 0.00 | 0.00 | 0.00 | 73 | 1012.3 |
| 20260510004250 | 57 | 71 | 5.0 | 11.0 | 0.00 | 0.00 | 0.00 | 73 | 1012.4 |
| 20260510003309 | 58 | 63 | 5.0 | 10.0 | 0.00 | 0.00 | 0.00 | 72 | 1012.4 |
| 20260510002258 | 58 | 49 | 7.0 | 13.0 | 0.00 | 0.00 | 0.00 | 71 | 1012.4 |
| 20260510001303 | 58 | 30 | 5.0 | 14.0 | 0.00 | 0.00 | 0.00 | 70 | 1012.6 |
| 20260510000244 | 58 | 38 | 5.0 | 15.0 | 0.00 | 0.00 | 0.00 | 70 | 1012.6 |
| 20260509235242 | 58 | 57 | 8.0 | 10.0 | 0.00 | 0.00 | 0.00 | 69 | 1012.6 |
| 20260509234256 | 59 | 44 | 5.0 | 13.0 | 0.00 | 0.00 | 0.00 | 69 | 1012.6 |
| 20260509233247 | 59 | 54 | 6.0 | 10.0 | 0.00 | 0.00 | 0.00 | 68 | 1012.6 |
| 20260509232244 | 59 | 70 | 6.0 | 10.0 | 0.00 | 0.00 | 0.00 | 68 | 1012.6 |
| 20260509231254 | 59 | 13 | 3.0 | 13.0 | 0.00 | 0.00 | 0.00 | 68 | 1012.6 |
| 20260509230244 | 59 | 90 | 5.0 | 10.0 | 0.00 | 0.00 | 0.00 | 67 | 1012.6 |
| 20260509225257 | 59 | 20 | 3.0 | 13.0 | 0.00 | 0.00 | 0.00 | 66 | 1012.6 |
| 20260509224251 | 59 | 76 | 4.0 | 9.0 | 0.00 | 0.00 | 0.00 | 66 | 1012.6 |
| 20260509223245 | 59 | 69 | 4.0 | 6.0 | 0.00 | 0.00 | 0.00 | 65 | 1012.7 |
| 20260509222306 | 59 | 32 | 1.0 | 7.0 | 0.00 | 0.00 | 0.00 | 66 | 1012.7 |
| 20260509221251 | 59 | 38 | 2.0 | 6.0 | 0.00 | 0.00 | 0.00 | 66 | 1012.7 |
| 20260509220242 | 59 | 42 | 3.0 | 5.0 | 0.00 | 0.00 | 0.00 | 66 | 1012.8 |
| 20260509215305 | 59 | 40 | 3.0 | 6.0 | 0.00 | 0.00 | 0.00 | 67 | 1012.8 |
| 20260509214259 | 59 | 69 | 3.0 | 6.0 | 0.00 | 0.00 | 0.00 | 67 | 1012.8 |
| 20260509213245 | 59 | 48 | 4.0 | 6.0 | 0.00 | 0.00 | 0.00 | 67 | 1012.7 |
| 20260509212300 | 59 | 51 | 3.0 | 8.0 | 0.00 | 0.00 | 0.00 | 67 | 1012.7 |
| 20260509211237 | 59 | 61 | 4.0 | 9.0 | 0.00 | 0.00 | 0.00 | 67 | 1012.7 |
| 20260509210252 | 59 | 50 | 2.0 | 6.0 | 0.00 | 0.00 | 0.00 | 67 | 1012.7 |
| 20260509205257 | 59 | 50 | 1.0 | 5.0 | 0.00 | 0.00 | 0.00 | 68 | 1012.7 |
| 20260509204256 | 59 | 51 | 2.0 | 7.0 | 0.00 | 0.00 | 0.00 | 68 | 1012.7 |
| 20260509203250 | 59 | 49 | 6.0 | 9.0 | 0.00 | 0.00 | 0.00 | 69 | 1012.6 |
| 20260509202247 | 59 | 47 | 3.0 | 6.0 | 0.00 | 0.00 | 0.00 | 70 | 1012.6 |
| 20260509201311 | 60 | 94 | 1.0 | 3.0 | 0.00 | 0.00 | 0.00 | 70 | 1012.4 |
| 20260509200247 | 61 | 94 | 0.0 | 1.0 | 0.00 | 0.00 | 0.00 | 69 | 1012.2 |
| 20260509195243 | 61 | 94 | 2.0 | 3.0 | 0.00 | 0.00 | 0.00 | 68 | 1012.2 |
| 20260509194256 | 61 | 94 | 0.0 | 0.0 | 0.00 | 0.00 | 0.00 | 68 | 1012.3 |
| 20260509193247 | 61 | 94 | 0.0 | 2.0 | 0.00 | 0.00 | 0.00 | 69 | 1012.3 |
| 20260509192242 | 62 | 94 | 0.0 | 1.0 | 0.00 | 0.00 | 0.00 | 68 | 1012.3 |
| 20260509191241 | 62 | 94 | 0.0 | 1.0 | 0.00 | 0.00 | 0.00 | 67 | 1012.3 |
| 20260509190311 | 62 | 94 | 2.0 | 4.0 | 0.00 | 0.00 | 0.00 | 64 | 1012.2 |
| 20260509185300 | 62 | 94 | 2.0 | 3.0 | 0.00 | 0.00 | 0.00 | 65 | 1012.2 |
| 20260509184256 | 62 | 94 | 0.0 | 1.0 | 0.00 | 0.00 | 0.00 | 66 | 1012.3 |
| 20260509183251 | 62 | 94 | 2.0 | 2.0 | 0.00 | 0.00 | 0.00 | 64 | 1012.2 |
| 20260509182251 | 63 | 94 | 1.0 | 2.0 | 0.00 | 0.00 | 0.00 | 66 | 1012.2 |
| 20260509181247 | 63 | 94 | 0.0 | 1.0 | 0.00 | 0.00 | 0.00 | 65 | 1012.2 |
| 20260509180245 | 64 | 94 | 0.0 | 2.0 | 0.00 | 0.00 | 0.00 | 61 | 1012.1 |
| 20260509175245 | 64 | 94 | 0.0 | 1.0 | 0.00 | 0.00 | 0.00 | 59 | 1012.1 |
| 20260509174258 | 64 | 94 | 0.0 | 2.0 | 0.00 | 0.00 | 0.00 | 58 | 1012.2 |
| 20260509173255 | 65 | 94 | 0.0 | 5.0 | 0.00 | 0.00 | 0.00 | 56 | 1012.2 |
| 20260509172246 | 65 | 55 | 0.0 | 3.0 | 0.00 | 0.00 | 0.00 | 56 | 1012.2 |
| 20260509171303 | 65 | 55 | 1.0 | 4.0 | 0.00 | 0.00 | 0.00 | 55 | 1012.2 |
| 20260509170246 | 66 | 55 | 1.0 | 5.0 | 0.00 | 0.00 | 0.00 | 54 | 1012.2 |
| 20260509165319 | 66 | 90 | 2.0 | 5.0 | 0.00 | 0.00 | 0.00 | 54 | 1012.2 |
| 20260509164246 | 66 | 51 | 2.0 | 5.0 | 0.00 | 0.00 | 0.00 | 54 | 1012.2 |
| 20260509163306 | 66 | 94 | 2.0 | 10.0 | 0.00 | 0.00 | 0.00 | 53 | 1012.2 |
| 20260509162242 | 66 | 34 | 5.0 | 10.0 | 0.00 | 0.00 | 0.00 | 53 | 1012.2 |
| 20260509161241 | 66 | 63 | 5.0 | 13.0 | 0.00 | 0.00 | 0.00 | 52 | 1012.2 |
| 20260509160242 | 66 | 123 | 2.0 | 5.0 | 0.00 | 0.00 | 0.00 | 54 | 1012.3 |
| 20260509155250 | 66 | 165 | 2.0 | 6.0 | 0.00 | 0.00 | 0.00 | 53 | 1012.3 |
| 20260509154250 | 66 | 59 | 3.0 | 4.0 | 0.00 | 0.00 | 0.00 | 55 | 1012.4 |
| 20260509153311 | 66 | 94 | 3.0 | 7.0 | 0.00 | 0.00 | 0.00 | 54 | 1012.3 |
| 20260509152247 | 66 | 32 | 5.0 | 9.0 | 0.00 | 0.00 | 0.00 | 54 | 1012.3 |
| 20260509151241 | 66 | 43 | 3.0 | 7.0 | 0.00 | 0.00 | 0.00 | 54 | 1012.3 |
| 20260509150256 | 66 | 100 | 3.0 | 6.0 | 0.00 | 0.00 | 0.00 | 56 | 1012.3 |
| 20260509145253 | 66 | 50 | 4.0 | 12.0 | 0.00 | 0.00 | 0.00 | 56 | 1012.4 |
| 20260509144315 | 66 | 104 | 2.0 | 9.0 | 0.00 | 0.00 | 0.00 | 57 | 1012.5 |
| 20260509143311 | 66 | 44 | 6.0 | 13.0 | 0.00 | 0.00 | 0.00 | 56 | 1012.7 |